OBJECT AY, 62655

Orbit data source: Space-Track

You're viewing an Uncataloged Satellite

Recently launched and/or uncataloged satellites may have evolving metadata. Metadata may include but not limited to: Owner, Maufacturer, Bus, Motor, and Mission.

OBJECT AY, 62655 is a satellite in SSO that was launched on Tue, 14 Jan 2025 UTC via an FALCON 9 launch vehicle from the Air Force Western Test Range (AFWTR). Unknown objects in Earth's orbit typically refer to objects detected orbiting the Earth but have not yet been identified or cataloged. These objects could be anything from previously untracked satellites, spent rocket stages, debris from satellite collisions, or even natural meteoroids temporarily captured by Earth's gravity.

Loading next visibility...
Identifier
62655, 2025-009AY
Orbit
SSO
Country
Flag of TBDTBD
Related business
None
Manufacturer
Unknown
Mission
Operational Commercial Navigation
Bus & Motor
Unknown
Mass
Unknown
Launch date (UTC)
2025-01-14 (9 months ago)
Launch vehicle
FALCON 9
Launch site
Air Force Western Test Range (AFWTR)
Object type
Unknown
Shape & HBR
Box, 0.1 m
Radar Cross Section
0.480 m², Small (<0.1 m²)

Expand to show TLE details & history
Last TLE update: 12 hours ago

TLE from 12 hours ago
0 OBJECT AY
1 62655U 25009AY  25301.47106818  .00024735  00000-0  87843-3 0  9990
2 62655  97.4243  21.5532 0001819  45.7185 314.4204 15.29021991 43646
Epoch: 2025-10-28T11:18Z
TLE epoch observation values (Epoch: 2025-10-28T11:18:20.290Z)
Latitude
-0.00004°
Longitude
174.91058°
Altitude
480.964 km
Speed
7.626 km/s
True Right ascension
01h 26m 12s
True Declination
0° 00' 00"
Sunlit
Object was in full shadow at epoch
Visualization orbit readout
Latitude
Unknown
Longitude
Unknown
Altitude
Unknown
Speed
Unknown
Apparent Right ascension
Unknown
Apparent Declination
Unknown
Sunlit
N/A
Visualization observer readout
Local Sidereal Time
19:12:32
Azimuth
Unknown
Elevation
Unknown
Doppler factor
Unknown
Orbital elements
Apogee altitude
476.936 km
Perigee altitude
474.443 km
Semi-major axis
6,853.826 km
Eccentricity
0.00018
Inclination
97.4243°
RAAN
21.5532°
Arg. of periapsis
45.7185°
True anomaly
314.40551°
Mean anomaly
314.4204°
Eccentric anomaly
314.41296°
Mean motion
3.82511 °/min
Orbital period
94.12 mins
BSTAR
0.00087843
Loading maneuver chart data...
Computing Atmospheric mass density...
Loading historical data...
Loading historical data...
Loading historical data...
Loading historical data...
Loading historical data...
Loading historical data...
Loading historical data...

Documentation

Showing up to 5 results
|